| time (UTC) | temp C | wind direction | speed KPH | gust KPH | rain 1hr cm | rain 24hr cm | rain mn cm | humidity % | barometer mb |
| 20260503200223 | 21 | 125 | 6.4 | 12.9 | 0.00 | 0.00 | 0.00 | 31 | 970.4 |
| 20260503195223 | 21 | 127 | 4.8 | 11.3 | 0.00 | 0.00 | 0.00 | 30 | 970.4 |
| 20260503194223 | 21 | 127 | 4.8 | 11.3 | 0.00 | 0.00 | 0.00 | 30 | 970.4 |
| 20260503193223 | 22 | 90 | 1.6 | 3.2 | 0.00 | 0.00 | 0.00 | 28 | 970.3 |
| 20260503192223 | 22 | 100 | 3.2 | 8.0 | 0.00 | 0.00 | 0.00 | 27 | 970.2 |
| 20260503191223 | 22 | 98 | 3.2 | 9.7 | 0.00 | 0.00 | 0.00 | 27 | 970.2 |
| 20260503190223 | 22 | 98 | 3.2 | 9.7 | 0.00 | 0.00 | 0.00 | 27 | 970.2 |
| 20260503185223 | 23 | 90 | 3.2 | 6.4 | 0.00 | 0.00 | 0.00 | 27 | 970.1 |
| 20260503182223 | 23 | 90 | 4.8 | 9.7 | 0.00 | 0.00 | 0.00 | 25 | 970.0 |
| 20260503181223 | 24 | 90 | 3.2 | 4.8 | 0.00 | 0.00 | 0.00 | 24 | 969.9 |
| 20260503180223 | 24 | 90 | 3.2 | 4.8 | 0.00 | 0.00 | 0.00 | 24 | 969.9 |
| 20260503175223 | 24 | 90 | 1.6 | 4.8 | 0.00 | 0.00 | 0.00 | 24 | 969.9 |
| 20260503174223 | 25 | 90 | 3.2 | 4.8 | 0.00 | 0.00 | 0.00 | 23 | 969.8 |
| 20260503173223 | 25 | 90 | 3.2 | 4.8 | 0.00 | 0.00 | 0.00 | 23 | 969.8 |
| 20260503172223 | 25 | 104 | 3.2 | 8.0 | 0.00 | 0.00 | 0.00 | 22 | 969.9 |
| 20260503171223 | 25 | 90 | 3.2 | 6.4 | 0.00 | 0.00 | 0.00 | 23 | 969.9 |
| 20260503170223 | 25 | 90 | 3.2 | 6.4 | 0.00 | 0.00 | 0.00 | 23 | 969.9 |
| 20260503150223 | 27 | 160 | 9.7 | 20.9 | 0.00 | 0.00 | 0.00 | 19 | 970.6 |
| 20260503140223 | 28 | 195 | 3.2 | 11.3 | 0.00 | 0.00 | 0.00 | 18 | 971.3 |
| 20260503131223 | 17 | 8 | 1.6 | 3.2 | 0.00 | 0.00 | 0.00 | 32 | 976.4 |
| 20260503130223 | 17 | 8 | 1.6 | 3.2 | 0.00 | 0.00 | 0.00 | 32 | 976.4 |
| 20260503110223 | 17 | 8 | 1.6 | 3.2 | 0.00 | 0.00 | 0.00 | 32 | 976.4 |
| 20260503100223 | 17 | 8 | 1.6 | 3.2 | 0.00 | 0.00 | 0.00 | 32 | 976.4 |
| 20260503090223 | 17 | 8 | 1.6 | 3.2 | 0.00 | 0.00 | 0.00 | 32 | 976.4 |
| 20260503081223 | 17 | 8 | 1.6 | 3.2 | 0.00 | 0.00 | 0.00 | 32 | 976.4 |
| 20260503080223 | 17 | 8 | 1.6 | 3.2 | 0.00 | 0.00 | 0.00 | 32 | 976.4 |
| 20260503072223 | 17 | 8 | 1.6 | 3.2 | 0.00 | 0.00 | 0.00 | 32 | 976.4 |
| 20260503071223 | 17 | 8 | 1.6 | 3.2 | 0.00 | 0.00 | 0.00 | 32 | 976.4 |
| 20260503070223 | 17 | 8 | 1.6 | 3.2 | 0.00 | 0.00 | 0.00 | 32 | 976.4 |
| 20260503060223 | 17 | 8 | 1.6 | 3.2 | 0.00 | 0.00 | 0.00 | 32 | 976.4 |
| 20260503054223 | 17 | 8 | 1.6 | 3.2 | 0.00 | 0.00 | 0.00 | 32 | 976.4 |
| 20260503053223 | 17 | 8 | 1.6 | 3.2 | 0.00 | 0.00 | 0.00 | 32 | 976.4 |
| 20260503052223 | 17 | 8 | 1.6 | 3.2 | 0.00 | 0.00 | 0.00 | 32 | 976.4 |
| 20260503051223 | 17 | 8 | 1.6 | 3.2 | 0.00 | 0.00 | 0.00 | 32 | 976.4 |
| 20260503050223 | 17 | 8 | 1.6 | 3.2 | 0.00 | 0.00 | 0.00 | 32 | 976.4 |
| 20260503045223 | 17 | 8 | 1.6 | 3.2 | 0.00 | 0.00 | 0.00 | 32 | 976.4 |
| 20260503044223 | 17 | 8 | 1.6 | 3.2 | 0.00 | 0.00 | 0.00 | 32 | 976.4 |
| 20260503043223 | 17 | 8 | 1.6 | 3.2 | 0.00 | 0.00 | 0.00 | 32 | 976.4 |
| 20260503042223 | 17 | 8 | 1.6 | 3.2 | 0.00 | 0.00 | 0.00 | 32 | 976.4 |
| 20260503041223 | 17 | 8 | 1.6 | 3.2 | 0.00 | 0.00 | 0.00 | 32 | 976.4 |
| 20260503040223 | 17 | 8 | 1.6 | 3.2 | 0.00 | 0.00 | 0.00 | 32 | 976.4 |
| 20260503035223 | 17 | 8 | 1.6 | 3.2 | 0.00 | 0.00 | 0.00 | 32 | 976.4 |
| 20260503034223 | 17 | 8 | 1.6 | 3.2 | 0.00 | 0.00 | 0.00 | 32 | 976.4 |
| 20260503033223 | 17 | 8 | 1.6 | 3.2 | 0.00 | 0.00 | 0.00 | 32 | 976.4 |
| 20260503032223 | 17 | 8 | 1.6 | 3.2 | 0.00 | 0.00 | 0.00 | 32 | 976.4 |
| 20260503031223 | 17 | 8 | 1.6 | 3.2 | 0.00 | 0.00 | 0.00 | 32 | 976.4 |
| 20260503030223 | 17 | 8 | 1.6 | 3.2 | 0.00 | 0.00 | 0.00 | 32 | 976.4 |
| 20260503025223 | 17 | 8 | 1.6 | 3.2 | 0.00 | 0.00 | 0.00 | 32 | 976.4 |
| 20260503024223 | 17 | 8 | 1.6 | 3.2 | 0.00 | 0.00 | 0.00 | 32 | 976.4 |
| 20260503023223 | 17 | 8 | 1.6 | 3.2 | 0.00 | 0.00 | 0.00 | 32 | 976.4 |
| 20260503022223 | 17 | 8 | 1.6 | 3.2 | 0.00 | 0.00 | 0.00 | 32 | 976.4 |
| 20260503021223 | 17 | 8 | 1.6 | 3.2 | 0.00 | 0.00 | 0.00 | 32 | 976.4 |
| 20260503020223 | 17 | 8 | 1.6 | 3.2 | 0.00 | 0.00 | 0.00 | 32 | 976.4 |
| 20260503015223 | 17 | 8 | 1.6 | 3.2 | 0.00 | 0.00 | 0.00 | 32 | 976.4 |
| 20260503014223 | 17 | 8 | 1.6 | 3.2 | 0.00 | 0.00 | 0.00 | 32 | 976.4 |
| 20260503013223 | 17 | 8 | 1.6 | 3.2 | 0.00 | 0.00 | 0.00 | 32 | 976.4 |
| 20260503012223 | 17 | 8 | 1.6 | 3.2 | 0.00 | 0.00 | 0.00 | 32 | 976.4 |
| 20260503011223 | 17 | 8 | 1.6 | 3.2 | 0.00 | 0.00 | 0.00 | 32 | 976.4 |
| 20260503010223 | 17 | 8 | 1.6 | 3.2 | 0.00 | 0.00 | 0.00 | 32 | 976.4 |
| 20260503005223 | 17 | 8 | 1.6 | 3.2 | 0.00 | 0.00 | 0.00 | 32 | 976.4 |
| 20260503004223 | 17 | 8 | 1.6 | 3.2 | 0.00 | 0.00 | 0.00 | 32 | 976.4 |
| 20260503003223 | 17 | 8 | 1.6 | 3.2 | 0.00 | 0.00 | 0.00 | 32 | 976.4 |
| 20260503002223 | 17 | 8 | 1.6 | 3.2 | 0.00 | 0.00 | 0.00 | 32 | 976.4 |
| 20260503001223 | 17 | 8 | 1.6 | 3.2 | 0.00 | 0.00 | 0.00 | 32 | 976.4 |
| 20260503000223 | 17 | 8 | 1.6 | 3.2 | 0.00 | 0.00 | 0.00 | 32 | 976.4 |
| 20260502235223 | 17 | 8 | 1.6 | 3.2 | 0.00 | 0.00 | 0.00 | 32 | 976.4 |
| 20260502234223 | 17 | 8 | 1.6 | 3.2 | 0.00 | 0.00 | 0.00 | 32 | 976.4 |
| 20260502233223 | 17 | 8 | 1.6 | 3.2 | 0.00 | 0.00 | 0.00 | 32 | 976.4 |
| 20260502232223 | 17 | 8 | 1.6 | 3.2 | 0.00 | 0.00 | 0.00 | 32 | 976.4 |
| 20260502231223 | 17 | 8 | 1.6 | 3.2 | 0.00 | 0.00 | 0.00 | 32 | 976.4 |
| 20260502230223 | 17 | 8 | 1.6 | 3.2 | 0.00 | 0.00 | 0.00 | 32 | 976.4 |
| 20260502225223 | 17 | 8 | 1.6 | 3.2 | 0.00 | 0.00 | 0.00 | 32 | 976.4 |
| 20260502224223 | 17 | 8 | 1.6 | 3.2 | 0.00 | 0.00 | 0.00 | 32 | 976.4 |
| 20260502223223 | 17 | 8 | 1.6 | 3.2 | 0.00 | 0.00 | 0.00 | 32 | 976.4 |
| 20260502222223 | 17 | 8 | 1.6 | 3.2 | 0.00 | 0.00 | 0.00 | 32 | 976.4 |
| 20260502221223 | 17 | 8 | 1.6 | 3.2 | 0.00 | 0.00 | 0.00 | 32 | 976.4 |
| 20260502220223 | 17 | 8 | 1.6 | 3.2 | 0.00 | 0.00 | 0.00 | 32 | 976.4 |
| 20260502215223 | 17 | 8 | 1.6 | 3.2 | 0.00 | 0.00 | 0.00 | 32 | 976.4 |
| 20260502214223 | 17 | 8 | 1.6 | 3.2 | 0.00 | 0.00 | 0.00 | 32 | 976.4 |
| 20260502213223 | 17 | 8 | 1.6 | 3.2 | 0.00 | 0.00 | 0.00 | 32 | 976.4 |
| 20260502212223 | 17 | 8 | 1.6 | 3.2 | 0.00 | 0.00 | 0.00 | 32 | 976.4 |
| 20260502211223 | 17 | 8 | 1.6 | 3.2 | 0.00 | 0.00 | 0.00 | 32 | 976.4 |
| 20260502210223 | 17 | 8 | 1.6 | 3.2 | 0.00 | 0.00 | 0.00 | 32 | 976.4 |
| 20260502205223 | 17 | 8 | 1.6 | 3.2 | 0.00 | 0.00 | 0.00 | 32 | 976.4 |
| 20260502204223 | 17 | 8 | 1.6 | 3.2 | 0.00 | 0.00 | 0.00 | 32 | 976.4 |
| 20260502203223 | 18 | 13 | 1.6 | 3.2 | 0.00 | 0.00 | 0.00 | 31 | 976.4 |
| 20260502202223 | 18 | 360 | 1.6 | 3.2 | 0.00 | 0.00 | 0.00 | 31 | 976.4 |
| 20260502201223 | 19 | 315 | 1.6 | 3.2 | 0.00 | 0.00 | 0.00 | 32 | 976.4 |